Location: Hysolar-Haus
(48.7436°N, 9.0965°E)
Time: 04:28:13
(UTC+00:00)

ISS - Visible Passes

Search period start: 23 April 2019 00:00
Search period end: 03 May 2019 00:00
Orbit: 408 x 410 km, 51.6° (Epoch: 23 April)

Date Brightness Start Highest point End Pass type
(mag) Time Alt. Az. Time Alt. Az. Time Alt. Az.
30 Apr -1.6 03:20:40 10° S 03:23:03 19° SE 03:25:26 10° E visible
01 May -1.2 02:31:14 10° SSE 02:32:24 11° SE 02:33:34 10° ESE visible
02 May -2.7 03:14:32 10° SW 03:17:35 36° SSE 03:20:41 10° ENE visible
